Hourly Data Report for May 16, 2004

SHERBROOKE A
QUEBEC

45°26'00.000" N
71°41'00.000" W
241.40 m
7028124
71610
YSC

Download Data

Hourly Data (May 2004)
Hourly Data Report for May 16, 2004
TIME
LST
Temp Definition
°C
Dew Point Definition
°C
Rel Hum Definition
%
Precip. Amount Definition
mm

Wind Dir Definition
10's deg

Wind Spd Definition
km/h
Visibility Definition
km
Stn Press Definition
kPa
Hmdx Definition


Wind Chill Definition


Weather Definition


00:00 12.3 6.8 69   25 4 15.0 99.16      
01:00 11.5 6.3 70   31 9 15.0 99.17      
02:00 10.6 5.0 68   32 9 15.0 99.25      
03:00 9.7 5.1 73   30 6 15.0 99.31      
04:00 8.7 5.2 79   29 6 15.0 99.37      
05:00 8.4 5.0 79   26 6 15.0 99.44      
06:00 8.8 5.2 78   29 6 15.0 99.49      
07:00 9.7 5.3 74     0 24.1 99.51     Mostly Cloudy
08:00 11.2 5.3 67   6 4 24.1 99.56     Mainly Clear
09:00 12.5 5.7 63   26 7 24.1 99.56     Mainly Clear
10:00 13.5 6.1 61   26 9 24.1 99.57     Mostly Cloudy
11:00 14.1 6.2 59   28 9 24.1 99.56     Mostly Cloudy
12:00 14.9 6.1 56   30 9 24.1 99.54     Mostly Cloudy
13:00 14.9 5.4 53   31 9 24.1 99.50     Mostly Cloudy
14:00 15.4 6.6 56   27 13 24.1 99.48     Mostly Cloudy
15:00 15.3 5.9 53   27 13 24.1 99.51     Mostly Cloudy
16:00 16.0 5.5 50   23 4 24.1 99.50     Mainly Clear
17:00 16.3 6.1 51   30 13 15.0 99.51      
18:00 15.5 6.1 53   27 13 15.0 99.52      
19:00 12.5 5.4 62   29 7 15.0 99.58      
20:00 8.7 5.5 80     0 15.0 99.62      
21:00 6.4 4.1 85   20 6 15.0 99.66      
22:00 5.4 3.8 89   5 4 15.0 99.67      
23:00 4.7 3.1 89     0 15.0 99.72      

Notes on Data Quality.

Legend

  • E = Estimated
  • M = Missing
  • NA = Not Available*
  • [empty] = Indicates an unobserved value
Date modified: